GFSCGP_850_thetae_120.txt.gz
Theta_e
308 308 309 310 310 310 310 310 311 313 314 314 315 316 316 315 314 312 311 314 314 315 315 315 319 321 323 323 322 317 318 318 325 328 332 333 332 331 331 333 332 326 326 327
311 309 308 309 309 310 310 309 309 310 312 312 313 313 313 313 313 313 314 314 315 315 315 319 320 321 323 326 322 322 324 326 329 328 332 331 331 331 332 333 328 324 325 325
309 310 311 311 310 310 310 310 310 309 310 309 310 311 312 314 314 313 314 314 314 316 320 320 322 322 323 325 328 328 329 330 328 331 329 331 330 331 333 330 324 327 327 327
308 309 309 309 310 311 311 311 309 308 309 310 312 313 314 314 314 315 314 315 318 321 321 321 321 322 322 326 328 329 330 324 327 329 330 331 331 332 332 326 323 328 328 328
308 308 308 308 309 309 310 310 310 310 310 310 312 313 313 313 314 313 315 319 321 322 321 319 319 320 321 324 323 329 330 323 329 332 332 333 333 332 328 322 326 329 327 327
310 309 307 308 308 308 309 309 311 312 312 313 313 313 313 313 314 313 319 320 320 319 318 318 318 319 320 322 324 324 325 328 330 332 334 333 333 331 326 327 329 327 328 325
309 311 309 309 308 310 308 310 312 312 313 313 311 311 312 313 315 318 319 319 318 318 318 318 319 319 321 323 323 324 324 329 331 332 332 331 330 328 325 329 327 327 327 325
307 311 310 307 308 309 310 311 310 311 312 312 312 311 314 318 317 316 316 316 317 318 317 317 319 320 322 324 326 325 326 326 328 327 332 331 329 326 327 327 329 327 327 326
305 307 310 309 310 308 309 312 312 311 311 310 312 316 318 316 314 313 314 314 317 317 317 317 317 319 320 321 323 326 326 325 326 328 330 331 329 327 330 328 327 327 327 327
305 305 307 308 310 312 310 310 310 310 311 310 310 313 314 315 311 308 307 307 310 313 314 316 316 318 318 318 320 325 327 325 325 327 328 330 329 327 326 326 326 327 327 326
303 305 306 307 309 310 313 313 312 312 311 311 312 312 315 314 311 308 307 306 306 309 312 315 316 316 316 318 318 322 325 324 324 325 325 328 328 327 324 326 325 325 325 327
303 304 306 306 307 308 309 312 314 317 314 313 313 313 314 314 311 308 307 306 306 306 312 315 315 316 316 317 317 319 323 323 324 323 324 327 328 326 324 324 324 324 324 324
304 303 303 304 308 308 307 306 307 309 312 314 314 313 315 314 311 308 306 305 305 305 311 313 315 316 316 316 316 316 319 323 323 323 323 326 326 326 323 323 323 324 324 322
302 303 303 303 306 305 304 304 305 305 308 310 311 311 310 308 307 307 305 305 305 305 309 313 316 317 316 315 315 315 317 320 322 323 323 325 324 323 324 323 323 323 322 322
303 302 301 301 302 302 303 304 304 304 304 305 307 306 306 306 306 305 304 305 305 307 309 314 317 318 317 314 314 314 315 317 320 323 323 324 323 323 323 322 323 322 321 322
303 302 302 301 301 302 303 303 303 304 304 305 305 305 306 305 304 304 304 305 306 309 314 317 316 315 313 311 312 314 313 314 318 321 322 323 322 322 322 322 322 321 321 321
304 302 302 302 301 301 301 302 302 303 303 304 304 305 305 304 305 305 305 305 310 314 315 314 313 311 310 310 311 312 313 314 317 320 322 322 322 321 321 322 322 321 321 321
304 303 302 303 301 302 301 302 302 302 302 303 303 304 304 305 305 307 308 308 313 313 311 310 309 308 307 306 307 311 313 313 316 319 321 323 322 320 321 321 321 321 321 321
303 303 303 303 302 301 301 302 302 302 302 303 304 306 306 308 310 311 311 312 310 309 307 307 306 304 304 304 308 308 313 312 316 318 320 322 322 320 320 321 321 321 320 321
302 303 303 302 303 302 302 303 303 305 304 308 308 308 306 306 313 313 309 306 305 304 303 303 302 301 301 304 306 307 311 313 314 318 320 321 323 320 319 321 321 321 321 320
303 306 305 303 306 304 303 304 304 304 308 307 306 302 300 308 307 305 303 302 301 301 300 299 299 300 302 303 304 306 308 307 312 316 319 321 321 319 319 320 321 321 320 320
304 305 307 306 306 306 305 304 306 307 307 305 303 304 307 308 305 303 302 300 298 297 297 297 297 299 300 301 302 303 306 306 312 315 315 319 321 319 319 320 320 320 319 319
304 303 304 306 306 306 303 305 305 306 307 305 304 304 304 304 302 301 299 297 296 294 294 295 296 297 298 298 299 300 302 304 305 308 314 318 319 319 318 319 319 318 317 317
301 301 305 304 303 301 299 299 301 303 300 299 299 300 300 299 298 297 295 293 293 292 292 292 292 294 295 296 296 296 298 300 301 307 307 309 311 316 316 317 317 316 315 314
302 303 302 304 300 300 299 297 297 298 298 298 298 297 297 297 296 294 293 292 291 290 290 290 291 290 292 294 294 295 295 297 300 301 300 302 305 306 301 305 308 311 308 309
301 300 301 302 297 297 298 297 297 296 295 295 297 297 295 295 294 293 291 290 290 290 288 289 290 289 289 291 292 293 294 295 297 299 299 301 300 299 300 299 298 299 302 303

GFSCGP_850_thetae_123.txt.gz
Theta_e
312 310 310 312 313 312 312 312 313 314 315 315 316 317 318 319 319 318 318 317 316 315 315 316 317 320 322 323 325 325 325 323 322 326 332 336 338 337 336 338 335 336 335 333
311 313 312 311 312 312 312 312 312 313 313 312 313 315 316 316 318 317 317 315 315 316 317 317 319 321 323 324 326 329 329 329 329 328 332 335 336 335 336 336 333 332 333 332
311 311 312 312 312 310 311 312 312 312 312 311 312 313 313 313 314 315 315 315 316 317 317 319 321 322 324 326 330 331 330 330 332 332 334 335 334 333 334 334 331 331 332 330
311 311 311 311 311 312 313 312 311 311 312 312 313 312 313 314 315 315 315 315 316 318 320 320 320 321 323 325 330 332 332 332 333 333 334 332 332 331 332 334 332 332 332 327
310 312 311 311 312 312 312 312 312 311 312 312 311 312 313 315 315 315 316 316 318 321 320 319 319 320 321 324 325 329 332 333 333 332 334 332 331 331 332 332 331 333 329 328
308 309 312 313 311 311 312 312 311 311 312 312 312 313 314 315 316 316 316 319 320 320 319 319 319 320 321 324 326 326 328 330 331 333 330 332 330 334 334 334 332 329 329 329
307 309 311 312 312 312 310 310 312 311 313 317 313 313 313 315 315 316 318 320 319 319 319 319 319 320 321 323 325 328 327 328 330 331 331 332 332 333 334 333 328 329 329 328
306 306 310 312 311 312 312 311 311 314 316 316 314 314 315 314 319 319 319 319 319 319 319 318 318 319 320 321 322 325 327 328 328 327 330 332 332 333 333 333 331 331 329 327
305 305 307 310 312 313 312 314 312 312 313 313 314 315 318 318 319 318 317 317 318 318 318 317 317 318 319 318 319 322 326 327 328 327 327 331 331 332 332 331 328 330 330 328
304 305 306 307 311 310 313 313 314 314 318 315 313 314 317 317 316 316 314 312 311 312 313 314 316 317 317 317 319 321 322 326 327 327 326 328 330 331 331 330 330 329 329 329
304 303 303 305 307 311 311 314 312 313 315 314 314 312 314 317 314 312 310 309 309 308 308 312 315 316 317 317 319 319 320 322 325 325 325 325 328 329 330 330 329 329 330 328
303 305 303 304 307 309 310 312 313 319 314 314 314 314 315 316 313 312 310 309 308 308 307 308 314 315 317 318 318 318 318 319 321 325 325 324 327 329 329 328 327 328 328 327
304 304 305 304 304 310 310 308 309 310 312 314 317 317 315 314 314 311 309 308 307 307 308 307 311 314 316 317 317 317 317 316 318 323 324 324 326 329 328 327 326 325 325 325
303 304 304 304 304 306 305 308 307 306 310 312 315 316 315 314 313 309 308 307 307 306 307 308 309 314 316 318 317 316 314 315 315 320 323 324 325 328 327 326 324 324 323 324
304 303 304 303 303 303 303 304 306 306 307 308 309 310 312 310 308 308 306 306 306 307 308 310 313 316 318 317 315 314 312 313 314 317 323 323 324 327 326 324 323 323 323 323
303 305 304 303 303 303 302 303 304 305 305 306 307 307 308 308 307 306 306 306 307 307 308 312 316 315 315 314 313 312 311 313 312 314 320 322 323 326 324 324 323 322 323 323
304 304 303 303 303 303 302 302 303 304 304 305 305 306 307 306 306 306 307 307 308 307 314 314 314 313 312 311 310 309 308 311 312 313 315 321 322 324 324 324 323 323 322 322
304 304 304 305 304 303 303 303 303 303 303 304 304 305 305 306 307 308 308 308 309 313 313 312 312 310 309 308 305 307 307 308 312 312 314 319 322 324 324 323 323 322 321 321
303 303 303 304 304 304 303 305 305 305 305 305 305 306 307 308 307 308 312 312 311 310 309 308 307 306 305 302 301 306 306 308 311 312 313 318 322 324 323 323 323 322 321 321
303 304 305 304 306 304 305 304 305 306 306 309 309 309 308 306 308 310 305 304 304 303 303 302 303 302 300 300 303 305 306 306 311 313 313 317 321 324 322 323 322 322 321 321
304 305 307 306 307 305 307 306 305 307 309 308 306 304 302 303 304 303 301 301 300 301 300 299 299 298 296 299 301 304 303 303 307 311 314 315 319 322 322 322 321 321 321 321
304 304 306 307 308 308 303 306 309 307 306 305 304 301 300 301 302 302 300 299 298 298 298 298 298 297 294 296 300 301 300 301 304 307 313 314 315 319 322 320 321 321 321 320
304 303 304 305 305 303 299 299 299 299 304 301 300 300 302 301 300 299 297 296 296 296 296 296 296 296 294 292 298 297 297 300 300 301 310 309 313 318 321 320 320 320 319 319
302 302 304 304 302 300 298 297 297 297 297 298 299 300 300 299 298 297 296 295 295 294 294 293 293 293 292 290 293 294 296 298 298 298 301 303 307 306 314 318 319 318 317 316
303 303 301 304 301 299 300 297 297 297 296 297 298 299 298 297 296 296 294 293 292 291 291 290 290 289 290 288 291 293 295 295 296 298 299 300 302 302 301 307 307 309 310 313
301 300 301 302 299 297 298 297 297 297 297 296 296 296 296 294 294 293 291 290 288 288 287 287 286 286 286 286 287 291 292 293 293 295 296 297 300 299 300 297 296 297 300 302

GFSCGP_850_thetae_126.txt.gz
Theta_e
311 313 312 310 311 312 313 313 313 315 315 315 314 316 317 318 319 319 321 321 319 319 317 317 317 318 319 320 321 320 318 318 319 321 330 335 338 331 335 334 337 340 338 335
311 311 313 314 313 312 312 313 314 315 314 314 313 315 315 315 316 316 315 319 319 318 317 316 316 319 322 323 324 324 327 328 327 327 323 328 333 338 336 335 335 336 339 336
312 312 312 312 313 313 313 313 313 312 313 314 313 314 314 314 314 314 314 314 318 317 315 317 320 321 323 324 327 329 331 331 330 329 329 327 333 338 337 336 334 333 336 337
309 311 312 311 312 312 312 312 313 313 313 312 313 313 313 313 313 314 314 313 315 316 318 320 321 321 323 325 326 329 332 333 332 331 331 332 332 335 336 335 333 332 338 336
306 307 308 309 312 312 312 313 312 313 313 313 313 314 314 314 314 314 314 315 315 317 319 320 320 320 321 323 324 326 325 333 333 334 333 335 334 334 335 332 331 331 332 335
305 307 308 308 309 311 312 311 312 313 313 314 313 313 314 314 314 316 317 316 318 321 320 319 320 320 321 324 325 328 328 327 328 331 332 334 334 333 331 330 330 330 332 332
305 306 307 308 309 312 312 311 312 316 315 316 313 313 314 314 315 317 316 317 321 320 319 319 319 320 321 322 322 322 327 327 328 326 329 330 333 331 330 332 333 331 331 331
302 304 307 311 312 313 313 312 314 311 313 315 314 316 315 315 315 317 317 320 319 319 319 319 319 318 319 319 319 321 321 328 329 328 327 328 330 331 331 335 332 332 332 330
303 304 305 306 307 310 314 314 314 315 314 314 314 315 316 316 316 320 320 320 319 319 319 318 317 317 318 317 319 320 321 322 327 327 326 327 328 332 332 334 333 331 330 329
303 303 304 304 305 307 311 312 315 315 316 314 313 314 318 317 317 319 319 318 318 317 315 315 315 316 317 317 318 319 320 321 321 325 326 325 328 331 333 333 333 331 329 329
302 303 304 305 303 304 310 311 311 313 317 314 315 314 317 318 317 318 316 313 311 310 309 310 312 314 316 317 318 319 319 318 319 319 324 325 325 328 332 333 331 331 329 329
302 304 304 304 305 307 307 311 313 311 314 313 315 315 315 316 317 315 311 310 309 309 308 308 308 312 314 317 318 318 318 317 316 316 319 324 324 324 328 331 331 330 330 328
303 305 305 305 305 307 308 307 308 309 311 312 316 316 316 316 315 313 311 309 308 308 308 308 308 308 313 315 319 318 316 315 314 314 316 322 324 325 326 329 331 330 330 327
305 303 302 304 304 306 304 304 305 308 309 309 309 312 314 314 314 313 311 308 307 307 307 307 309 309 317 319 317 316 316 315 313 313 315 320 323 324 325 328 329 329 328 326
305 304 302 303 304 303 302 302 303 304 308 308 308 308 309 307 309 312 311 307 306 307 307 307 309 316 316 315 315 314 314 313 312 312 314 316 322 324 325 327 328 328 326 324
304 305 305 306 305 304 303 304 303 303 304 306 306 306 307 309 308 308 307 307 307 308 308 309 316 315 314 313 312 311 311 310 309 311 313 314 319 323 324 326 328 326 324 323
304 304 304 304 303 303 303 303 303 302 303 304 305 305 307 306 308 309 309 309 309 308 312 314 313 312 311 310 309 308 308 306 307 308 312 313 316 321 323 324 326 325 323 323
304 304 304 305 304 304 304 305 306 303 303 304 304 304 307 308 308 309 311 311 311 312 311 310 309 308 308 307 306 305 305 304 305 307 310 312 315 318 323 324 325 324 323 324
303 304 305 305 303 303 304 307 306 305 305 309 309 308 306 306 306 308 306 305 305 305 305 304 304 304 303 302 301 302 302 300 304 307 310 313 313 317 321 323 325 324 323 323
302 304 306 305 307 304 306 303 305 307 305 307 307 305 304 303 307 307 302 301 302 302 301 301 301 300 299 297 298 299 300 300 302 305 309 312 313 315 319 318 324 324 323 322
304 304 306 308 307 307 302 303 304 308 306 306 305 303 301 303 302 301 301 300 299 299 299 299 299 299 297 295 295 298 299 297 300 304 306 311 313 314 314 316 323 324 322 321
304 303 304 305 304 304 299 301 302 299 299 299 300 300 302 301 300 299 298 297 297 297 297 297 297 297 296 294 292 294 297 295 297 301 304 309 310 312 314 315 323 323 322 321
303 303 304 304 303 301 298 297 297 297 297 298 299 300 300 299 298 298 297 297 296 295 294 294 294 294 293 292 289 290 294 292 296 299 301 305 307 307 311 314 322 322 320 320
302 302 303 302 302 299 299 298 297 297 297 297 298 298 298 298 296 296 295 294 293 292 291 290 290 290 289 288 288 289 290 292 294 296 298 299 300 304 306 306 302 320 320 318
303 303 301 302 301 298 299 297 296 297 297 296 297 297 296 295 295 294 293 291 290 289 288 287 286 286 286 285 287 288 289 291 292 294 295 295 297 299 301 302 299 301 316 314
301 300 301 301 299 298 298 297 296 296 296 296 295 295 294 293 293 292 290 288 287 286 285 285 284 284 284 284 285 286 287 289 289 292 293 293 294 295 296 299 299 295 300 305

GFSCGP_850_thetae_129.txt.gz
Theta_e
308 306 309 307 305 307 307 308 309 310 311 310 311 312 311 313 314 313 313 314 314 320 321 322 321 321 319 320 320 319 319 319 320 328 334 333 332 331 330 332 335 337 339 339
308 307 308 310 311 311 310 309 309 310 310 311 311 312 309 311 313 313 313 313 314 315 319 318 317 319 318 319 318 321 321 322 326 327 325 326 332 331 328 329 331 335 336 337
304 307 309 311 310 310 310 311 311 311 310 309 309 309 310 311 313 313 313 313 313 314 314 317 319 321 322 322 321 321 321 322 321 325 330 328 326 334 333 335 335 336 334 334
303 306 304 305 306 308 308 310 311 310 309 310 311 310 310 310 311 312 313 312 313 315 316 318 320 321 322 323 322 322 323 321 327 332 330 330 329 327 330 331 330 334 333 333
302 302 302 303 305 306 306 307 309 310 309 309 310 311 311 310 311 311 312 312 313 315 320 320 321 323 324 324 323 321 319 324 330 333 333 331 331 331 329 331 335 333 331 332
302 304 302 303 306 307 307 307 308 309 308 310 311 310 311 310 311 312 312 313 313 314 317 319 320 322 323 323 323 321 326 328 328 327 329 333 333 334 335 334 335 333 331 331
303 302 302 307 306 307 307 311 312 311 309 311 311 312 312 311 311 312 312 318 315 318 319 319 320 320 320 320 320 320 318 324 328 329 328 326 331 334 333 332 330 328 329 329
301 301 302 303 303 304 306 312 315 316 314 311 312 313 312 311 311 313 313 319 319 318 319 319 320 319 319 318 318 319 319 318 326 327 328 326 327 329 331 330 329 330 329 329
301 301 302 303 303 302 304 307 311 314 314 316 311 311 310 311 312 313 313 319 319 319 319 318 318 317 319 317 318 319 318 316 316 321 324 324 325 326 328 330 330 332 332 331
302 302 302 302 303 304 307 309 310 313 316 316 313 310 311 312 319 316 317 318 318 318 317 316 317 317 317 317 317 318 317 316 314 315 318 320 323 325 326 328 332 330 333 331
301 302 301 302 302 303 304 307 309 311 312 313 316 311 315 314 315 316 313 316 314 313 312 312 314 314 316 316 317 318 318 317 314 314 314 317 320 323 324 326 332 331 333 330
302 303 302 303 303 305 306 308 311 311 311 309 310 313 309 309 312 311 310 311 310 308 308 308 307 312 314 317 318 318 318 316 314 313 313 313 317 321 323 324 326 331 332 330
304 303 303 301 304 304 304 305 306 309 309 308 311 313 309 309 308 311 311 310 307 307 307 307 308 313 317 318 317 317 316 316 315 314 313 313 314 320 323 323 324 327 331 331
303 303 303 303 302 303 305 305 304 307 308 307 308 308 310 309 308 308 310 310 309 307 307 308 316 316 316 316 315 315 314 313 312 313 312 312 313 316 322 323 324 325 329 330
304 303 304 303 303 304 304 304 303 303 303 307 307 307 308 308 308 307 308 309 310 309 311 314 314 313 313 313 313 312 311 310 311 311 311 310 312 314 317 323 324 325 327 330
303 302 304 304 304 305 303 302 303 303 303 302 305 306 307 307 308 308 308 311 312 311 311 310 309 309 309 309 310 310 309 308 310 309 309 309 311 312 315 320 324 325 325 328
304 303 303 303 303 303 303 304 305 305 303 304 305 308 307 308 308 308 307 307 307 307 306 306 305 305 306 307 308 309 308 307 307 307 307 308 309 312 314 318 322 324 325 328
303 303 303 304 303 303 305 303 304 306 305 306 306 305 305 305 306 305 304 304 304 304 303 305 304 303 303 305 306 306 306 305 304 304 305 307 308 311 313 315 319 323 325 326
301 302 303 300 304 303 302 301 303 306 305 303 306 304 303 303 305 303 302 302 301 301 301 301 300 300 300 300 301 301 302 301 299 300 302 305 307 310 312 314 318 319 324 325
302 303 304 305 305 305 301 300 300 299 305 300 302 303 301 302 304 303 300 299 298 299 298 298 298 298 297 297 297 297 297 299 300 301 302 304 306 308 311 313 315 318 321 324
300 298 303 304 304 303 299 299 300 303 299 298 299 299 300 301 300 299 298 298 297 296 296 296 295 295 294 294 294 294 294 296 298 301 303 305 305 306 309 311 313 316 317 323
300 297 299 300 293 298 298 299 298 298 297 297 298 298 299 298 298 297 296 296 295 294 293 293 292 292 291 290 290 291 293 295 296 298 301 304 302 303 308 309 311 314 315 318
297 302 302 303 302 298 298 298 297 297 297 297 298 297 297 297 296 296 294 293 292 292 290 289 289 289 289 289 289 289 291 292 294 297 298 299 298 301 305 306 308 308 311 307
302 301 299 301 300 298 298 297 296 297 297 296 296 296 295 295 294 293 291 290 289 288 287 286 286 286 286 287 288 288 289 290 292 294 294 295 295 298 302 302 302 304 303 305
301 302 301 300 299 298 298 296 295 296 296 295 295 294 293 293 292 291 289 287 286 285 285 284 284 285 285 286 286 287 288 289 290 291 291 292 293 295 296 298 298 299 301 302
300 300 297 300 298 297 297 296 295 295 295 295 293 293 292 291 290 289 287 286 285 285 285 285 284 284 285 284 284 284 286 287 287 288 289 289 291 292 292 292 294 296 298 301

GFSCGP_850_thetae_132.txt.gz
Theta_e
307 305 306 307 305 305 304 304 304 305 307 308 308 309 309 310 311 311 311 313 313 313 315 313 316 318 320 321 321 322 325 330 333 333 334 332 331 330 331 334 331 329 334 336
301 304 306 306 308 308 306 305 305 307 307 307 307 307 308 308 309 312 313 312 313 313 313 313 314 319 321 321 321 323 324 325 328 332 332 332 331 328 328 332 334 331 331 332
300 302 303 303 302 304 304 307 308 307 307 307 307 307 307 308 309 312 313 313 313 313 313 314 316 320 320 320 320 321 321 323 325 327 328 328 327 327 329 333 335 334 332 334
300 302 302 301 301 302 303 305 305 305 304 306 309 309 310 309 308 309 311 312 312 312 312 316 318 323 323 323 324 324 324 322 322 325 327 330 330 329 328 327 325 329 332 330
301 301 301 300 301 302 305 306 306 306 304 306 307 307 309 309 309 308 308 312 312 312 317 319 321 319 322 323 323 322 321 319 317 321 331 333 332 329 328 329 329 328 329 328
301 302 301 301 302 303 305 307 308 307 305 307 308 308 308 309 309 309 310 311 312 312 317 317 319 324 324 323 321 320 317 316 315 325 328 327 327 331 332 332 332 330 330 332
300 302 301 302 301 302 301 307 310 310 308 307 308 309 308 309 309 309 309 311 311 313 315 321 323 323 322 320 319 316 313 314 324 326 328 328 326 325 328 332 332 332 331 333
300 300 300 302 302 301 300 309 307 311 311 314 311 311 310 310 311 313 315 312 312 314 316 320 322 321 320 319 317 315 315 314 322 324 325 324 323 324 327 328 332 331 329 329
301 301 301 301 301 302 302 302 304 308 307 309 310 310 309 311 311 313 313 314 315 316 319 321 321 319 318 317 317 317 316 314 312 313 315 318 320 320 324 325 327 329 330 329
301 301 301 301 301 301 302 302 305 305 303 308 314 313 313 311 310 310 312 313 311 316 317 318 318 318 318 317 317 317 316 315 315 313 313 313 313 317 320 324 325 326 329 330
301 300 301 301 300 301 303 304 305 307 308 309 310 313 310 309 310 309 311 312 310 309 311 308 316 317 317 317 318 318 317 317 315 314 313 313 313 313 318 321 323 324 327 331
302 302 302 301 301 304 303 305 306 307 308 309 310 310 309 308 308 307 306 307 308 309 308 314 312 318 318 317 317 317 317 316 315 314 313 313 312 313 315 319 322 323 325 328
302 302 299 300 301 303 303 303 304 306 307 307 307 305 308 307 307 305 306 306 309 309 306 308 313 315 315 315 315 315 314 311 310 311 311 311 311 311 312 316 320 321 322 325
303 302 303 302 303 302 303 303 303 304 306 305 305 304 307 308 307 305 307 308 311 311 310 312 312 310 310 310 310 310 310 308 307 308 308 310 310 310 311 313 316 320 321 324
302 302 302 303 303 303 304 304 302 302 302 304 303 304 307 308 308 307 307 309 308 307 306 306 306 307 307 307 307 307 307 307 307 308 307 307 309 310 310 312 313 318 322 324
302 298 300 302 302 302 302 303 304 305 306 304 306 308 306 308 308 308 307 306 306 305 304 303 303 304 305 305 305 305 306 306 306 307 307 308 308 309 309 310 312 315 321 323
304 304 303 303 302 302 304 302 304 305 305 307 306 305 304 305 308 305 304 304 303 302 301 300 300 300 301 301 301 302 303 305 306 306 306 307 307 308 308 309 312 313 318 322
303 301 302 304 303 303 302 300 302 304 301 302 303 303 303 302 304 303 302 301 300 300 298 297 297 296 296 297 299 300 302 302 303 303 304 304 305 307 307 308 311 313 316 320
300 301 304 302 304 303 301 300 300 301 302 299 300 300 301 302 303 302 299 298 298 296 296 296 296 296 297 299 299 299 300 299 300 301 302 302 304 306 306 307 311 313 314 319
300 300 298 303 304 303 301 299 298 299 302 298 299 300 301 300 303 302 298 296 295 295 295 295 295 295 295 295 295 296 297 297 298 299 300 300 302 304 305 306 310 311 312 315
296 294 295 298 299 302 299 298 298 299 297 297 298 297 298 300 298 297 295 295 294 293 293 293 293 293 294 294 294 294 294 295 296 297 298 300 299 301 303 305 308 310 310 312
298 296 293 296 290 296 298 298 299 298 297 297 297 296 296 296 295 295 293 292 291 291 291 290 291 290 289 290 292 293 294 293 294 294 296 295 294 298 301 304 307 309 307 310
296 298 296 301 301 298 298 297 296 296 296 296 295 296 295 295 293 292 291 290 289 288 288 288 288 289 288 287 287 288 289 291 292 291 291 291 294 297 299 303 306 305 303 305
298 300 297 298 298 298 296 296 295 295 296 296 295 294 293 292 291 290 290 288 286 287 287 286 287 287 287 287 286 285 284 286 287 287 288 291 293 295 296 299 301 301 300 301
297 302 298 297 298 298 298 296 295 295 295 294 293 293 291 291 289 288 288 286 285 285 285 285 284 284 284 283 284 284 285 286 287 287 288 289 290 291 292 294 295 296 297 297
300 299 294 294 297 297 297 296 295 294 294 293 292 291 290 289 288 287 286 285 284 283 284 284 284 284 284 284 284 284 284 284 285 286 286 287 287 288 290 290 291 292 294 295

GFSCGP_850_thetae_135.txt.gz
Theta_e
305 305 305 305 305 306 304 303 303 305 304 306 305 306 307 308 307 308 310 312 313 313 313 314 313 314 315 316 319 319 321 321 322 327 334 335 335 337 334 332 330 333 333 332
299 300 304 301 302 303 306 305 304 304 304 304 304 305 306 307 306 309 309 310 311 312 313 313 312 313 314 318 317 319 320 321 321 324 331 332 332 332 331 328 329 331 332 331
300 300 301 301 300 301 301 304 304 304 303 304 304 305 306 307 307 309 310 311 312 312 312 312 313 314 316 319 322 321 321 322 326 332 332 335 335 333 331 330 329 330 335 332
300 301 301 300 300 300 301 304 305 304 303 304 306 304 305 306 306 307 308 310 311 312 312 312 312 316 320 324 325 326 329 330 331 333 333 332 330 327 325 326 326 326 327 330
301 301 300 300 301 301 303 302 306 307 305 304 305 304 306 306 307 306 306 310 311 311 311 311 313 318 324 325 326 326 326 325 326 325 323 324 327 329 329 329 328 328 328 328
301 301 300 301 301 301 301 301 304 306 304 305 305 304 305 305 307 309 311 313 314 314 310 312 316 320 325 324 323 321 320 320 321 323 323 321 327 331 331 331 329 328 329 329
299 300 300 301 300 300 300 302 303 305 307 306 306 305 307 309 311 310 312 312 311 312 314 311 318 325 324 324 322 320 321 326 326 325 327 326 327 326 325 325 329 333 331 330
300 300 300 300 301 301 300 303 301 303 304 304 304 305 306 307 308 310 312 310 309 312 314 311 314 323 322 318 316 315 315 317 322 322 319 319 320 317 316 322 325 328 331 331
300 301 299 301 301 300 300 300 302 302 304 305 304 305 308 308 307 308 310 309 308 310 312 317 320 323 319 318 316 314 313 312 311 312 313 313 313 314 317 321 324 325 327 330
300 300 300 301 300 300 300 300 301 301 301 303 301 306 308 309 309 308 307 305 308 309 310 316 319 320 319 318 316 314 314 314 313 312 313 312 312 312 313 317 322 323 325 326
300 300 300 300 300 301 303 303 303 302 304 306 307 306 309 308 308 309 308 306 308 307 309 315 317 318 317 316 316 315 315 315 314 313 312 312 311 312 313 317 318 321 322 324
301 301 302 300 300 301 302 302 303 300 300 306 307 307 308 308 306 307 307 308 309 308 307 312 313 313 312 312 313 314 315 312 311 310 310 310 310 311 311 312 314 318 321 322
301 301 299 300 299 302 301 303 303 305 305 306 306 305 306 306 306 307 308 308 308 308 309 307 305 307 307 307 307 308 309 308 307 307 307 306 306 308 310 310 311 312 319 320
303 301 301 301 301 300 302 302 303 304 304 305 305 303 306 307 307 308 307 308 305 304 304 304 302 302 302 303 304 306 308 307 306 307 307 307 307 307 307 309 310 311 313 318
301 300 301 301 301 302 302 302 303 304 304 305 305 305 306 307 308 308 307 305 304 302 300 300 301 299 301 303 302 304 303 303 304 304 304 306 307 307 307 308 309 309 311 313
301 299 300 302 302 302 302 301 302 304 304 305 304 305 303 304 306 305 303 303 302 301 300 298 299 297 298 298 299 299 300 301 301 300 302 304 306 307 307 308 308 309 310 311
301 302 303 303 302 302 304 300 302 303 302 303 304 303 302 302 304 302 301 300 299 298 296 295 295 295 295 296 297 299 299 300 299 299 300 301 303 305 307 307 307 308 308 311
302 301 302 303 302 303 301 300 300 302 299 299 300 300 300 301 302 299 298 298 295 294 293 293 292 293 293 294 295 297 297 297 296 297 299 300 301 303 305 306 306 307 308 310
300 300 303 300 303 302 301 299 299 300 300 298 300 299 298 299 301 298 295 294 293 291 291 292 292 292 292 292 292 293 294 295 296 297 297 298 300 301 304 305 305 306 307 309
298 297 296 301 303 302 300 298 298 299 301 297 298 298 298 298 299 298 294 292 292 291 291 289 289 290 290 291 292 292 293 294 295 295 295 296 297 299 302 304 305 305 306 308
295 293 293 297 290 295 298 297 298 299 295 297 296 296 296 297 295 295 293 291 290 289 288 288 288 287 287 288 289 290 290 290 290 292 293 294 295 296 299 301 303 305 305 306
296 296 292 293 288 293 298 298 297 297 297 296 296 295 294 294 293 291 290 289 287 288 288 287 287 287 287 287 288 289 288 289 290 291 291 293 294 295 296 298 301 303 304 305
293 293 294 296 296 297 297 296 296 296 296 296 295 294 293 292 291 290 289 288 286 286 286 286 287 287 287 287 287 287 288 288 289 290 290 291 292 292 293 295 297 300 300 301
295 299 299 295 297 298 296 296 295 295 295 295 294 293 292 291 290 289 288 287 286 287 287 286 287 287 286 286 285 285 286 287 288 289 288 288 289 290 291 291 292 294 294 297
293 300 297 293 297 297 297 296 295 295 294 293 293 292 291 290 288 288 287 286 285 285 286 285 285 285 285 285 285 284 284 285 285 286 286 286 286 286 287 288 288 289 291 293
299 298 293 292 297 295 297 295 295 294 293 292 291 290 289 288 287 287 286 286 285 284 284 285 285 285 285 285 285 285 285 284 283 284 284 284 284 284 284 285 287 287 288 291